Location: Brunembert
(50.7122°N, 1.8935°E)
Time: 10:24:37
(UTC+00:00)

Cosmos 1782 - Pass Details

Date: 22 April 2021
Orbit: 535 x 552 km, 82.5° (Epoch: 05 May)

Event Time Altitude Azimuth Distance (km) Brightness Sun altitude
Exits shadow 22:28:48 24° 60° (ENE) 1,156 4.5 -24.3°
Drops below altitude 10° 22:31:07 10° 30° (NNE) 1,837 5.9 -24.4°
Sets 22:33:29 0° 19° (NNE) 2,734 7.1 -24.6°
